Showing default

KUIPER-00266, 67789

Orbit data source: Space-Track

KUIPER-00266, 67789 is a payload satellite owned by Kuiper Systems (US) in LEO that was launched on Thu, 12 Feb 2026 UTC via an ARIANE 64 launch vehicle from the French Guiana (FRGUI). Payload-class satellites include a variety of spacecraft equipped with specific instruments for various scientific and technological missions. These include communications satellites like Starlink; space stations such as the ISS; scientific satellites like the Hubble; Earth observation satellites from companies like Planet Labs, Umbra, and HawkEye 360; GPS; miniature CubeSats for education and research; and military/defense satellites.

Loading next visibility...
Identifier
67789, 2026-030AB
Orbit
LEO
Country
Flag of USUS
Related business
Manufacturer
Kuiper Systems
Mission
Operational Commercial Communications
Bus & Motor
KUIPER, Unknown motor
Mass
~490 kg wet, ~490 kg dry
Launch date (UTC)
2026-02-12 (4 months ago)
Launch vehicle
ARIANE 64
Launch site
French Guiana (FRGUI)
Object type
Payload
Rocket body
Debris
Shape & HBR
Box + 2 Pan, 3.4 m
Radar Cross Section
2.326 m², Large (>1 m²)

Expand to show TLE details & history
Last TLE update: 1 day ago

TLE from 1 day ago
0 KUIPER-00266
1 67789U 26030AB  26170.50834569  .00002141  00000-0  31010-3 0  9990
2 67789  51.8982 102.8842 0003067 101.9684 258.1622 14.79899270 20534
Epoch: 2026-06-19T12:12Z
TLE epoch observation values (Epoch: 2026-06-19T12:12:01.067Z)
Latitude
-0.00005°
Longitude
12.1434°
Altitude
630.83 km
Speed
7.544 km/s
True Right ascension
06h 51m 32s
True Declination
0° 00' 00"
Sunlit
Object was in daylight at epoch
Visualization orbit readout
Latitude
Unknown
Longitude
Unknown
Altitude
Unknown
Speed
Unknown
Apparent Right ascension
Unknown
Apparent Declination
Unknown
Sunlit
N/A
Visualization observer readout
Local Sidereal Time
08:41:33
Azimuth
Unknown
Elevation
Unknown
Doppler factor
Unknown
Orbital elements
Apogee altitude
632.243 km
Perigee altitude
627.944 km
Semi-major axis
7,008.231 km
Eccentricity
0.00031
Inclination
51.8982°
RAAN
102.8842°
Arg. of periapsis
101.9684°
True anomaly
258.1278°
Mean anomaly
258.1622°
Eccentric anomaly
258.145°
Mean motion
3.69939 °/min
Orbital period
97.31 mins
BSTAR
0.0003101
Loading maneuver chart data...
Computing Atmospheric mass density...
Loading historical data...
Loading historical data...
Loading historical data...
Loading historical data...
Loading historical data...
Loading historical data...
Loading historical data...

Documentation

Showing up to 5 results
|